FW1908 Weather Reports


Display with metric or nautical units.
time (UTC)temp
F
wind
direction
speed
MPH
gust
MPH
rain 1hr
in
rain 24hr
in
rain mn
in
humidity
%
barometer
mb
20260503184528 68 181 5.0 10.0 0.00 0.00 0.00 36 1018.6
20260503184025 68 215 5.0 10.0 0.00 0.00 0.00 38 1018.7
20260503183253 68 338 5.0 10.0 0.00 0.00 0.00 36 1018.7
20260503183019 69 324 4.0 10.0 0.00 0.00 0.00 37 1018.7
20260503182241 69 244 3.0 9.0 0.00 0.00 0.00 39 1018.8
20260503181735 69 313 3.0 13.0 0.00 0.00 0.00 39 1018.9
20260503181229 68 259 4.0 13.0 0.00 0.00 0.00 43 1018.9
20260503180722 69 312 4.0 9.0 0.00 0.00 0.00 37 1019.0
20260503180217 69 331 3.0 9.0 0.00 0.00 0.00 39 1018.9
20260503175711 69 296 5.0 14.0 0.00 0.00 0.00 38 1019.1
20260503175427 68 261 4.0 14.0 0.00 0.00 0.00 42 1019.2
20260503174700 68 289 3.0 10.0 0.00 0.00 0.00 39 1019.2
20260503174152 67 136 4.0 10.0 0.00 0.00 0.00 44 1019.4
20260503173647 67 227 3.0 9.0 0.00 0.00 0.00 40 1019.4
20260503173140 67 321 3.0 9.0 0.00 0.00 0.00 43 1019.5
20260503172129 66 253 4.0 12.0 0.00 0.00 0.00 43 1019.7
20260503171622 66 328 5.0 12.0 0.00 0.00 0.00 42 1019.8
20260503171118 66 273 4.0 12.0 0.00 0.00 0.00 42 1019.8
20260503170610 65 284 5.0 12.0 0.00 0.00 0.00 44 1019.9
20260503170105 66 315 5.0 12.0 0.00 0.00 0.00 41 1020.0
20260503150957 60 322 2.0 8.0 0.00 0.00 0.00 47 1020.9
20260503150457 60 21 2.0 5.0 0.00 0.00 0.00 46 1021.0
20260503130945 46 59 0.0 3.0 0.00 0.02 0.00 93 1020.7
20260503130704 46 55 0.0 0.0 0.00 0.03 0.00 93 1020.7
20260503110439 38 329 0.0 1.0 0.00 0.03 0.00 91 1019.9
20260503090311 39 329 0.0 1.0 0.00 0.08 0.00 90 1018.2
20260503081211 40 329 0.0 0.0 0.00 0.08 0.00 89 1017.7
20260503080706 40 329 0.0 0.0 0.00 0.08 0.00 89 1017.6
20260503080200 40 329 0.0 0.0 0.00 0.08 0.00 89 1017.6
20260503072112 41 329 0.0 0.0 0.00 0.08 0.00 89 1017.2
20260503071823 41 329 0.0 0.0 0.00 0.08 0.00 89 1017.1
20260503071100 42 329 0.0 1.0 0.00 0.08 0.00 89 1017.1
20260503054924 43 329 0.0 0.0 0.00 0.08 0.00 87 1016.8
20260503054418 43 329 0.0 0.0 0.00 0.08 0.00 86 1016.8
20260503053912 43 329 0.0 0.0 0.00 0.08 0.00 86 1016.7
20260503053406 43 329 0.0 0.0 0.00 0.08 0.00 86 1016.7
20260503053123 44 329 0.0 0.0 0.00 0.08 0.00 86 1016.7
20260503052353 44 329 0.0 0.0 0.00 0.08 0.00 86 1016.7
20260503051847 44 329 0.0 0.0 0.00 0.08 0.00 86 1016.6
20260503051342 44 329 0.0 0.0 0.00 0.08 0.00 86 1016.6
20260503050836 44 329 0.0 0.0 0.00 0.08 0.00 86 1016.5
20260503050331 44 329 0.0 0.0 0.00 0.08 0.00 86 1016.5
20260503045824 44 329 0.0 0.0 0.00 0.08 0.00 86 1016.5
20260503045318 44 329 0.0 0.0 0.00 0.08 0.00 85 1016.5
20260503044811 45 329 0.0 1.0 0.00 0.08 0.00 85 1016.5
20260503044538 45 329 0.0 1.0 0.00 0.08 0.00 85 1016.5
20260503044025 45 329 0.0 0.0 0.00 0.08 0.00 85 1016.4
20260503043253 45 329 0.0 1.0 0.00 0.08 0.00 85 1016.3
20260503042748 45 329 0.0 1.0 0.00 0.08 0.00 85 1016.4
20260503042242 45 329 0.0 1.0 0.00 0.08 0.00 85 1016.4
20260503041735 46 329 0.0 2.0 0.00 0.08 0.00 84 1016.3
20260503041453 46 329 0.0 2.0 0.00 0.08 0.00 84 1016.3
20260503040724 46 329 0.0 0.0 0.00 0.08 0.00 83 1016.2
20260503040218 46 329 0.0 0.0 0.00 0.08 0.00 83 1016.2
20260503035712 46 329 0.0 1.0 0.00 0.08 0.08 83 1016.2
20260503035430 46 329 0.0 1.0 0.00 0.08 0.08 83 1016.2
20260503034928 47 329 0.0 1.0 0.00 0.08 0.08 83 1016.1
20260503034153 47 329 0.0 1.0 0.00 0.08 0.08 83 1016.1
20260503033648 47 329 0.0 1.0 0.00 0.08 0.08 82 1016.0
20260503033141 47 329 0.0 1.0 0.00 0.08 0.08 82 1016.1
20260503032636 47 329 0.0 2.0 0.00 0.08 0.08 82 1016.0
20260503032130 47 329 0.0 2.0 0.00 0.08 0.08 82 1016.0
20260503031846 48 329 0.0 2.0 0.00 0.08 0.08 82 1016.0
20260503031118 48 329 0.0 2.0 0.00 0.08 0.08 82 1015.9
20260503030830 48 329 1.0 4.0 0.00 0.08 0.08 82 1016.0
20260503030107 48 329 0.0 4.0 0.00 0.08 0.08 82 1016.0
20260503025600 48 295 0.0 0.0 0.00 0.08 0.08 81 1015.8
20260503025054 48 295 0.0 0.0 0.00 0.08 0.08 81 1015.8
20260503024547 49 295 0.0 0.0 0.00 0.08 0.08 80 1015.7
20260503024042 49 295 0.0 0.0 0.00 0.08 0.08 79 1015.6
20260503023535 49 295 0.0 0.0 0.00 0.08 0.08 79 1015.4
20260503023030 49 295 0.0 0.0 0.00 0.08 0.08 79 1015.4
20260503022523 49 295 0.0 0.0 0.00 0.08 0.08 78 1015.3
20260503022018 49 295 0.0 0.0 0.00 0.08 0.08 76 1015.3
20260503021512 50 295 0.0 0.0 0.00 0.08 0.08 75 1015.3
20260503021005 50 295 0.0 0.0 0.00 0.08 0.08 75 1015.2
20260503020500 50 295 0.0 0.0 0.00 0.08 0.08 74 1015.1
20260503015958 50 295 0.0 0.0 0.00 0.08 0.08 74 1015.0
20260503015444 50 295 0.0 0.0 0.00 0.08 0.08 73 1014.9
20260503014937 51 295 0.0 0.0 0.00 0.08 0.08 73 1014.9
20260503014432 51 295 0.0 0.0 0.00 0.08 0.08 73 1014.7
20260503013926 51 295 0.0 0.0 0.00 0.08 0.08 72 1014.6
20260503013421 51 295 0.0 0.0 0.00 0.08 0.08 72 1014.5
20260503012914 51 295 0.0 0.0 0.00 0.08 0.08 71 1014.5
20260503012408 52 295 0.0 0.0 0.00 0.08 0.08 70 1014.4
20260503011907 52 295 0.0 0.0 0.00 0.08 0.08 69 1014.4
20260503011409 52 295 0.0 0.0 0.00 0.08 0.08 69 1014.3
20260503010908 53 295 0.0 0.0 0.00 0.08 0.08 68 1014.3
20260503010405 53 295 0.0 0.0 0.00 0.08 0.08 67 1014.3
20260503005906 53 295 0.0 0.0 0.00 0.08 0.08 65 1014.1
20260503005406 53 295 0.0 0.0 0.00 0.08 0.08 64 1014.0
20260503005127 54 295 0.0 0.0 0.00 0.08 0.08 63 1013.8
20260503003902 54 295 0.0 0.0 0.00 0.08 0.08 61 1013.7
20260503003631 55 295 0.0 0.0 0.00 0.08 0.08 62 1013.7
20260503002902 55 295 0.0 0.0 0.00 0.08 0.08 61 1013.6
20260503002402 55 295 0.0 0.0 0.00 0.08 0.08 60 1013.5
20260503001902 56 295 0.0 0.0 0.00 0.08 0.08 60 1013.3
20260503001402 56 295 0.0 0.0 0.00 0.08 0.08 60 1013.2
20260503001122 56 295 0.0 0.0 0.00 0.08 0.08 60 1013.1
20260503000401 57 295 0.0 0.0 0.00 0.08 0.08 58 1013.1
20260502235902 57 295 0.0 0.0 0.00 0.08 0.08 58 1013.1
20260502235627 58 295 0.0 0.0 0.00 0.08 0.08 57 1013.0
20260502234901 58 295 0.0 0.0 0.00 0.08 0.08 55 1012.9
20260502234400 58 295 0.0 1.0 0.00 0.08 0.08 56 1012.8
20260502233859 58 295 0.0 1.0 0.00 0.08 0.08 53 1012.8
20260502233358 58 295 0.0 1.0 0.00 0.08 0.08 53 1012.7
20260502232855 58 300 1.0 2.0 0.00 0.08 0.08 51 1012.6
20260502232356 58 11 1.0 3.0 0.00 0.08 0.08 50 1012.6
20260502231855 58 86 0.0 3.0 0.00 0.08 0.08 50 1012.6
20260502231356 59 86 0.0 2.0 0.00 0.08 0.08 51 1012.6
20260502230853 59 86 1.0 3.0 0.00 0.08 0.08 50 1012.6
20260502230113 59 86 1.0 7.0 0.00 0.08 0.08 50 1012.6
20260502225352 59 86 2.0 7.0 0.00 0.08 0.08 50 1012.6
20260502224849 59 95 2.0 6.0 0.00 0.08 0.08 49 1012.6
20260502224348 59 94 2.0 6.0 0.00 0.08 0.08 48 1012.6
20260502223848 59 111 2.0 7.0 0.00 0.08 0.08 49 1012.6
20260502223348 59 75 4.0 7.0 0.00 0.08 0.08 48 1012.6
20260502222847 60 143 4.0 9.0 0.00 0.08 0.08 49 1012.5
20260502222348 60 103 3.0 9.0 0.00 0.08 0.08 53 1012.5
20260502221847 60 115 2.0 6.0 0.00 0.08 0.08 52 1012.4
20260502221348 60 82 2.0 6.0 0.00 0.08 0.08 52 1012.4
20260502221109 60 121 2.0 5.0 0.00 0.08 0.08 52 1012.4
20260502220609 60 121 3.0 7.0 0.00 0.08 0.08 52 1012.4
20260502215847 60 67 2.0 7.0 0.00 0.08 0.08 52 1012.4
20260502215347 60 84 2.0 6.0 0.00 0.08 0.08 52 1012.3
20260502214614 60 96 2.0 7.0 0.00 0.08 0.08 54 1012.3
20260502213848 60 101 2.0 4.0 0.00 0.08 0.08 54 1012.2
20260502213605 60 104 2.0 7.0 0.00 0.08 0.08 52 1012.2
20260502212847 60 107 2.0 7.0 0.00 0.08 0.08 52 1012.1
20260502212623 60 9 2.0 7.0 0.00 0.08 0.08 52 1012.2
20260502211848 60 113 2.0 7.0 0.00 0.08 0.08 56 1012.2
20260502211347 60 62 2.0 4.0 0.00 0.08 0.08 55 1012.2
20260502210847 60 79 2.0 7.0 0.00 0.08 0.08 55 1012.1
20260502210347 60 78 2.0 7.0 0.00 0.08 0.08 54 1012.2
20260502205847 60 99 1.0 6.0 0.00 0.08 0.08 57 1012.1
20260502205347 60 93 1.0 6.0 0.00 0.08 0.08 55 1012.1
20260502205108 60 90 3.0 8.0 0.00 0.08 0.08 55 1012.1
20260502204608 60 108 3.0 8.0 0.00 0.08 0.08 53 1012.1
20260502203845 60 107 3.0 7.0 0.00 0.08 0.08 55 1012.1
20260502203347 60 108 3.0 7.0 0.00 0.08 0.08 56 1012.2
20260502202843 60 84 3.0 8.0 0.00 0.08 0.08 57 1012.2
20260502202341 60 123 3.0 8.0 0.00 0.08 0.08 59 1012.2
20260502201840 60 119 3.0 7.0 0.00 0.08 0.08 59 1012.3
20260502201340 60 104 3.0 8.0 0.00 0.08 0.08 58 1012.3
20260502200840 59 79 3.0 8.0 0.00 0.08 0.08 58 1012.3
20260502200602 59 52 3.0 7.0 0.00 0.08 0.08 64 1012.3
20260502195840 59 97 4.0 8.0 0.00 0.08 0.08 62 1012.4
20260502195555 59 94 4.0 9.0 0.00 0.08 0.08 62 1012.4
20260502194834 59 125 3.0 9.0 0.00 0.08 0.08 64 1012.4
20260502194334 59 103 4.0 9.0 0.00 0.08 0.08 63 1012.5
20260502193836 59 63 4.0 9.0 0.00 0.08 0.08 64 1012.6
20260502193334 59 78 3.0 8.0 0.00 0.08 0.08 67 1012.8
20260502192834 59 50 3.0 8.0 0.00 0.08 0.08 68 1012.9
20260502192549 58 114 3.0 6.0 0.00 0.08 0.08 67 1012.9
20260502191820 58 103 3.0 7.0 0.00 0.08 0.08 67 1013.0
20260502191314 58 108 2.0 7.0 0.00 0.08 0.08 67 1013.0
20260502191037 58 90 2.0 6.0 0.00 0.08 0.08 68 1013.1
20260502190302 58 87 2.0 6.0 0.00 0.08 0.08 68 1013.2
20260502190023 58 94 2.0 7.0 0.00 0.08 0.08 69 1013.2
20260502185519 58 86 2.0 7.0 0.00 0.08 0.08 68 1013.0
20260502184757 58 118 1.0 5.0 0.00 0.08 0.08 67 1013.0